Regional Weather Roundup
Issued by NWS

Home | Current Version | Previous Version | Text Only | Print | Product List | Glossary Off
Versions: 1 2 3 4 5 6 7 8 9 10 11 12 13 14 15 16 17 18 19 20 21 22 23 24 25 26 27 28 29 30 31 32 33 34 35 36 37 38 39 40 41 42 43 44 45 46 47 48 49 50

000
ASUS45 KBOU 312107
RWRCO

WEATHER ROUNDUP FOR COLORADO
NATIONAL WEATHER SERVICE DENVER/BOULDER CO
300 PM MDT TUE MAY 31 2016

NOTE: "FAIR" INDICATES FEW OR NO CLOUDS BELOW 12000 FEET WITH NO
SIGNIFICANT WEATHER AND/OR OBSTRUCTIONS TO VISIBILITY.

COZ001>005-013-030-031-312200-
...NORTHWEST COLORADO...

CITY           SKY/WX    TMP DP  RH WIND       PRES   REMARKS
CRAIG          FAIR      70  34  26 N10G17    30.10F
HAYDEN         FAIR      66  28  24 NW14G22   30.11S
MEEKER         NOT AVBL
MOUNT WERNER   NOT AVBL
STEAMBOAT SPGS FAIR      67  26  21 SW10G18   30.10F
WALDEN         NOT AVBL
$$

COZ006>008-011-312200-
...WEST CENTRAL VALLEYS...

CITY           SKY/WX    TMP DP  RH WIND       PRES   REMARKS
GRAND JUNCTION FAIR      80  30  16 NW12      29.95F
MONTROSE       FAIR      79  31  17 N10G16    30.01F
EAGLE          MOSUNNY   73  27  17 W18G25    30.06S
RIFLE          FAIR      79  31  17 N12G21    29.99F
DELTA          FAIR      85  26  11 NW18G26   29.97S
NUCLA          FAIR      79  21  11 N7G16     30.04F
$$

COZ017>023-064>068-312200-
...SOUTHWEST COLORADO...

CITY           SKY/WX    TMP DP  RH WIND       PRES   REMARKS
DURANGO        FAIR      77  19  11 W13G21    30.02F
CORTEZ         FAIR      80  21  11 VRB3      29.99F
PAGOSA SPRINGS FAIR      72   6   7 CALM      30.08F
TELLURIDE      CLOUDY    60  27  28 SW13G32   30.22R
WOLF CREEK PAS FAIR      46  19  34 SW14G23   30.38S
$$

COZ009-010-012-014-032>034-037-058>063-312200-
...CENTRAL COLORADO...

CITY           SKY/WX    TMP DP  RH WIND       PRES   REMARKS
ASPEN          LGT RAIN  62  31  31 S7        30.13F
BUENA VISTA    FAIR      71  18  13 SE5       30.08F
COPPER MTN     NOT AVBL
BERTHOUD PASS  LGT SNOW  32  23  69 W21       30.38S WCI  20
COTTONWOOD PAS PTSUNNY   63  14  15 NW9       30.21S
GUNNISON       FAIR      68  25  19 W5        30.11S
KREMMLING      PTSUNNY   63  27  25 N14G20    30.11S
LEADVILLE      PTSUNNY   55  21  26 W20       30.22S
MONARCH PASS   FAIR      50  18  27 W21G29    30.45S
SALIDA         FAIR      73  31  21 E5        30.13F
SUNLIGHT       FAIR      52  30  43 CALM      30.33F
WILKERSON PASS PTSUNNY   52  30  43 E7G20     30.32F
$$

COZ069>075-312200-
...SAN LUIS VALLEY/SANGRE DE CRISTO MOUNTAINS...

CITY           SKY/WX    TMP DP  RH WIND       PRES   REMARKS
ALAMOSA        FAIR      72  28  19 SW18      30.06F
LA VETA PASS   PTSUNNY   55  43  62 NE12      30.25F
SAGUACHE       FAIR      64  32  29 E8        30.10S
$$

COZ035-036-038>040-312200-
...NORTHERN COLORADO FRONT RANGE...

CITY           SKY/WX    TMP DP  RH WIND       PRES   REMARKS
DENVER INTL AP PTSUNNY   61  49  64 NE13      30.07F
DMNS CITY PARK   N/A     62  48  59 NE13G23   30.06S
AURORA         PTSUNNY   66  51  59 NE17      30.07F
FRONT RANGE AP PTSUNNY   63  48  59 NE14      30.08F
ERIE MUNI ARPT FAIR      65  47  52 NE8       30.07F
BOULDER MUN AP PTSUNNY   63  43  48 NE7       30.07S
CENTENNIAL     PTSUNNY   68  48  48 NE10      30.05S THUNDER
BROOMFIELD     PTSUNNY   64  46  52 NE13      30.09S
FORT COLLINS   PTSUNNY   64  46  52 CALM      30.08F
LONGMONT       FAIR      69  46  44 NE6       30.08F
$$

COZ041-046-047-076>085-087-088-312200-
...PIKES PEAK/PALMER DIVIDE AND SOUTHERN FOOTHILLS...

CITY           SKY/WX    TMP DP  RH WIND       PRES   REMARKS
COLO. SPRINGS  PTSUNNY   66  44  45 S18G26    30.07F
A. F. ACADEMY  CLOUDY    61  45  55 SE15      30.07F
SCHRIEVER AFB  NOT AVBL
ELLICOTT         N/A      1   1 100 S18       30.07  WCI -20
FALCON         PTSUNNY   63  43  48 S15       30.12F
FORT CARSON    FAIR      69  47  46 S16       30.05F
LIMON          FAIR      65  49  56 SE10      30.07F
MONUMENT HILL  PTSUNNY   59  45  58 S14       30.14R THUNDER
TRINIDAD       FAIR      67  44  43 SE10G18   30.04F
$$

COZ042>045-048>051-090-091-312200-
...NORTHEAST COLORADO...

CITY           SKY/WX    TMP DP  RH WIND       PRES   REMARKS
GREELEY ARPT   PTSUNNY   64  46  52 SE9       30.08F
AKRON          PTSUNNY   63  45  51 SE5       30.07F
BURLINGTON     FAIR      71  45  39 E6        30.05F
WRAY           FAIR      70  43  37 N3        30.05F
STERLING       FAIR      64  46  52 E5        30.06F
HOLYOKE        NOT AVBL
FORT MORGAN    FAIR      67  45  44 SE6       30.07F
$$

COZ086-089-092>099-312200-
...SOUTHEAST COLORADO...

CITY           SKY/WX    TMP DP  RH WIND       PRES   REMARKS
PUEBLO         FAIR      73  49  42 SE13G20   30.01F
LA JUNTA       FAIR      75  49  39 E10       30.00F
LAMAR          PTSUNNY   77  52  41 E13G22    29.97F
SPRINGFIELD      N/A     71  55  56 SE12      30.01F
$$



USA.gov is the U.S. government's official web portal to all federal, state and local government web resources and services.